RH
76 72 80 76 79 87 86 78 64 71 69 62 66 62 70 79 74 83 93 80 85 86 86 82 81 80 78 80 80 78 77 76 78 78 77 76 72 73 73 72 72 74 72 72 72 73 74 74 73
71 65 87 88 85 86 87 62 67 69 59 56 55 61 72 89 83 93 96 84 78 82 85 86 83 82 79 79 78 78 73 74 76 76 76 74 73 71 70 67 71 73 73 74 73 73 73 73 73
65 70 84 89 92 87 80 64 66 60 57 55 56 60 71 91 85 86 90 82 85 92 88 89 84 82 79 77 81 86 76 74 76 76 75 75 74 72 69 73 72 75 76 74 75 73 73 73 74
79 86 88 84 89 81 72 68 64 69 58 52 60 78 73 70 82 83 84 86 91 94 89 82 78 81 79 76 75 84 80 76 77 77 77 78 71 69 69 75 74 76 76 75 73 75 72 73 76
84 84 84 87 81 76 73 63 67 73 66 60 58 87 90 75 77 87 88 84 92 96 90 84 82 80 76 72 79 79 90 75 77 77 75 73 67 67 73 76 74 74 73 75 74 71 70 70 77
79 74 85 90 82 73 71 68 64 65 63 66 71 83 94 86 90 88 83 87 85 92 90 89 81 80 77 75 78 75 77 74 78 77 75 75 67 70 77 76 75 74 71 70 71 70 70 66 64
75 80 83 84 80 73 71 62 68 60 60 62 64 93 95 92 86 82 84 87 86 90 96 94 88 81 82 92 91 74 76 76 76 71 73 70 67 73 73 78 73 72 69 69 72 72 71 69 67
72 81 76 75 84 74 62 63 57 55 61 53 62 92 97 88 84 88 85 86 93 93 94 95 94 95 94 89 86 78 79 76 72 76 70 74 74 68 61 78 74 70 68 67 69 70 72 71 72
55 80 82 69 72 64 64 62 48 49 60 56 56 72 72 84 90 95 98 97 93 91 93 96 96 95 92 94 87 78 76 75 71 72 70 80 92 90 86 80 70 68 68 69 71 72 73 75 74
67 81 68 59 61 62 60 56 52 55 64 74 77 77 80 89 92 95 96 92 98 99 99 98 97 96 93 93 96 96 96 97 97 95 94 93 92 92 84 82 74 73 70 71 72 72 73 72 87
62 67 57 57 52 53 60 60 50 57 75 70 77 90 86 91 93 93 93 92 93 96 97 98 97 95 94 96 97 100 100 99 98 96 96 94 89 91 87 88 88 92 87 91 84 84 89 87 89
57 48 56 58 56 55 58 53 54 63 59 59 66 79 84 90 91 88 91 93 95 95 92 94 96 96 97 97 98 99 99 98 96 96 95 95 89 93 93 95 92 94 92 88 88 88 88 84 85
50 48 50 52 53 54 53 58 60 63 56 60 67 75 83 86 84 82 82 86 90 92 91 94 96 98 99 98 98 98 96 90 90 95 94 93 88 94 91 92 92 88 95 94 94 89 90 89 88
35 43 46 56 55 54 59 62 58 62 61 65 71 76 77 80 79 81 83 87 91 87 92 96 96 98 98 99 98 95 91 91 91 95 93 90 95 92 91 91 88 88 94 95 93 92 93 94 88
41 46 48 51 62 58 58 69 69 65 65 68 69 74 74 74 74 78 77 82 84 88 93 99 97 98 98 99 97 96 91 86 90 91 92 90 94 90 93 90 90 89 94 93 93 92 90 85 77
45 53 54 44 63 58 55 76 67 68 68 73 69 68 69 72 70 70 71 76 83 89 96 97 91 96 98 98 97 91 89 93 95 93 92 85 88 92 92 92 91 93 93 97 94 92 83 80 88
54 56 55 49 60 62 62 72 71 73 68 72 72 69 64 70 68 66 65 72 79 86 95 98 97 98 98 97 98 96 92 95 97 96 91 92 89 87 90 92 92 91 88 96 86 91 84 89 92
48 46 43 51 48 64 72 73 77 74 71 70 69 68 68 65 64 61 62 68 79 89 93 96 98 99 97 99 97 97 97 96 95 90 90 91 92 88 89 88 93 90 94 94 93 87 86 90 92
34 45 49 35 38 67 71 70 73 71 73 77 73 72 66 59 58 59 62 70 83 91 96 96 98 99 97 97 98 98 98 96 96 95 92 92 89 87 88 88 92 89 93 92 90 90 89 91 93
28 41 35 33 58 60 71 72 70 71 74 68 69 65 63 62 63 65 69 76 84 94 96 97 96 98 97 96 96 96 96 92 94 92 91 88 88 89 85 89 93 92 90 93 92 93 91 93 93
24 38 34 35 54 63 66 69 63 68 74 71 67 60 56 58 64 73 76 79 83 93 97 96 97 97 96 95 97 98 93 95 95 89 90 86 86 85 86 89 92 89 83 92 94 94 86 92 90
26 24 24 34 64 73 63 68 60 69 72 75 69 64 62 61 65 69 71 78 80 86 89 94 96 96 94 95 96 94 93 96 90 94 90 85 84 83 83 88 87 85 91 92 91 92 91 87 94
21 22 26 43 62 63 50 68 49 77 68 65 72 65 60 60 64 68 70 72 73 80 84 91 95 95 92 94 94 93 93 89 86 91 88 89 85 83 79 88 88 89 87 89 89 92 89 86 95
20 25 25 40 49 43 47 56 43 51 57 58 61 63 58 57 58 66 70 68 71 75 79 87 94 95 94 94 94 92 92 91 93 92 90 88 86 86 84 84 89 86 88 90 90 87 84 89 89
22 27 35 36 38 36 48 60 42 42 42 45 43 58 61 58 56 66 73 72 75 82 84 86 92 95 93 92 92 91 92 90 90 89 87 89 89 88 88 87 91 91 90 89 90 88 86 87 86
25 25 32 42 40 35 53 45 28 38 44 55 54 52 52 57 54 65 70 69 71 75 84 83 90 91 91 90 91 90 93 94 85 88 93 90 89 86 85 88 88 88 89 88 88 85 87 85 86
25 27 26 34 43 34 33 34 30 32 44 48 56 56 55 56 55 64 69 68 69 71 82 86 88 88 89 86 88 91 90 93 88 89 88 85 86 80 80 87 89 88 88 92 92 97 87 88 86
20 19 23 30 37 40 32 34 40 33 41 43 43 46 52 58 56 63 68 67 68 67 72 83 87 84 86 83 82 82 86 89 89 91 89 89 91 83 83 83 88 88 90 90 93 95 88 89 84
20 26 29 28 31 32 36 33 39 54 56 52 46 42 45 52 57 59 65 65 67 67 72 83 89 84 87 85 84 81 84 88 89 88 89 88 90 93 89 90 89 88 90 92 94 94 91 90 91
26 27 30 36 41 42 39 39 62 68 66 66 58 48 43 45 52 58 60 67 70 71 72 78 84 88 81 84 85 83 84 86 86 89 89 88 88 88 90 91 90 92 89 90 91 90 89 91 90
Wind_Speed
3 2 1 3 3 4 4 1 4 5 6 4 2 1 4 4 1 3 1 4 12 13 10 12 15 15 15 15 14 13 14 15 15 14 13 13 13 13 12 12 12 10 8 8 6 5 6 6 6
1 3 2 2 5 4 2 3 3 1 4 8 3 2 4 3 3 7 7 6 13 12 9 8 16 15 16 15 13 12 12 14 14 13 13 13 11 10 10 10 10 8 8 7 7 7 7 6 6
2 1 3 4 3 3 4 2 3 5 8 5 2 4 2 2 6 11 4 10 9 8 7 8 16 17 17 18 17 7 9 12 13 13 12 12 12 11 10 10 9 8 7 7 8 7 7 7 6
1 3 4 5 2 3 3 1 2 5 2 5 5 5 3 3 7 5 11 12 10 8 7 11 17 21 20 22 20 14 6 10 12 13 13 11 10 10 9 10 10 9 8 8 8 8 7 7 8
2 3 4 3 3 3 3 1 2 1 3 2 3 3 2 4 7 13 11 11 11 6 6 8 15 18 21 21 21 18 7 9 11 10 13 11 11 9 9 11 10 9 8 9 8 7 6 6 6
4 2 5 2 4 3 4 2 1 1 3 2 5 4 1 3 10 11 10 9 8 8 6 6 15 17 19 22 20 17 21 13 10 11 12 10 11 9 9 11 10 9 7 7 7 5 4 5 6
3 3 2 2 3 7 2 3 2 2 2 2 8 4 0 3 6 9 9 7 7 3 4 3 4 8 16 15 18 21 18 13 12 11 11 9 10 9 6 10 10 9 7 7 7 7 8 8 8
3 3 1 2 3 5 3 1 2 2 2 6 4 5 4 6 10 9 8 7 5 4 4 4 3 4 6 10 21 20 15 15 13 9 9 9 6 6 9 8 7 8 7 7 7 8 10 8 5
2 4 1 3 4 5 3 4 3 3 6 1 2 5 5 16 13 10 7 4 4 4 3 3 3 4 5 4 4 12 12 13 13 9 8 5 2 3 1 5 6 7 7 7 8 9 8 6 4
3 3 6 5 4 3 3 5 3 3 4 2 3 8 15 17 14 13 11 11 6 5 3 4 4 4 4 3 3 4 3 3 2 5 3 2 2 3 2 1 5 6 7 8 9 10 9 4 1
2 4 4 4 7 3 4 3 2 4 3 6 7 13 15 15 12 12 10 11 12 7 4 5 5 4 4 2 2 2 2 2 3 5 3 2 2 2 1 0 2 3 6 1 3 4 0 1 1
2 7 4 3 3 4 4 5 6 5 3 5 11 16 14 14 13 12 10 8 9 9 10 7 6 5 4 2 2 3 3 2 2 3 5 3 2 2 1 1 2 3 1 1 2 2 3 4 3
4 5 2 5 5 5 4 6 3 5 1 9 12 14 14 12 12 8 8 8 9 10 10 9 7 5 5 4 2 3 2 2 3 3 4 3 2 2 1 2 3 2 2 2 3 2 3 4 4
4 6 5 4 5 2 6 3 4 1 9 12 13 13 13 13 13 8 10 10 11 9 9 7 8 6 6 4 4 3 3 3 3 3 3 2 2 2 3 2 3 3 2 3 2 2 3 4 4
4 7 6 1 3 4 5 3 7 5 9 13 13 10 8 11 10 13 10 10 10 6 7 9 8 7 8 5 4 3 3 3 3 3 3 3 4 4 3 3 3 3 2 3 2 0 3 3 3
5 4 6 3 3 2 4 9 6 7 12 11 11 10 11 11 13 10 9 9 7 7 10 9 9 8 6 6 5 3 3 3 3 2 2 4 4 4 3 3 3 3 2 2 2 1 1 3 3
6 3 5 8 5 1 4 8 3 4 6 8 9 11 12 9 9 10 10 10 10 10 9 10 9 10 9 5 4 4 5 3 3 2 2 4 4 3 3 3 2 2 2 3 2 1 0 2 3
5 6 6 8 4 5 5 14 3 7 7 10 7 13 10 11 14 9 11 10 9 9 8 8 5 8 8 4 3 2 3 2 3 3 3 4 3 4 3 3 3 3 2 2 2 2 0 2 2
5 4 8 19 7 5 8 15 9 10 7 8 8 8 8 13 9 10 11 10 10 9 9 9 9 8 7 4 3 2 2 2 3 3 5 4 3 4 3 3 2 3 2 2 3 2 2 1 0
5 6 15 10 2 6 5 14 8 12 7 8 12 10 12 6 8 9 11 11 12 12 11 10 9 9 7 5 3 3 3 2 2 2 4 5 4 5 5 3 3 3 3 3 3 2 1 1 2
5 5 6 8 4 3 6 10 5 2 3 6 7 8 9 7 7 9 12 13 12 11 12 11 10 10 8 7 4 2 3 2 1 3 2 4 4 4 5 4 3 4 3 3 3 3 3 2 2
5 5 7 3 3 4 3 7 5 5 3 5 8 8 9 8 7 10 13 12 13 11 10 10 10 10 8 9 7 4 4 4 3 3 2 3 4 4 5 4 4 4 3 3 3 3 2 3 2
10 4 3 1 3 4 4 3 10 3 5 9 9 10 10 8 10 11 12 13 11 11 11 10 10 9 9 9 8 5 3 3 2 2 3 3 1 2 3 4 3 3 2 2 3 3 2 2 2
2 0 6 6 3 4 5 3 9 2 6 4 5 11 13 10 11 10 9 9 10 9 9 10 11 10 9 9 8 8 7 5 2 2 3 3 2 3 3 4 4 3 2 3 2 1 1 2 2
4 7 4 6 6 6 5 1 12 3 7 6 8 10 11 10 10 11 13 12 12 12 12 11 12 10 11 11 10 9 7 6 7 5 3 4 2 2 5 5 4 3 4 4 3 2 2 2 2
5 9 8 4 2 5 3 4 9 4 7 4 2 2 7 9 10 13 15 14 14 16 14 14 13 12 11 12 11 9 8 5 4 5 3 3 3 3 3 4 4 5 4 3 3 1 2 2 2
3 1 4 8 2 3 3 8 13 3 4 5 2 1 5 7 7 11 12 14 14 15 16 15 15 13 13 13 10 10 9 8 7 6 3 3 3 3 4 5 5 4 4 5 3 3 4 2 2
4 6 4 4 0 3 5 5 6 15 18 10 8 6 6 5 8 10 13 15 13 13 13 13 13 16 13 13 11 10 10 9 8 5 6 6 3 3 4 5 4 4 4 4 4 3 3 3 2
2 2 7 6 5 6 1 7 2 6 10 12 8 8 8 6 7 10 13 15 14 12 14 15 13 13 12 12 11 10 10 10 8 7 6 6 5 5 5 4 5 4 4 4 4 4 4 4 3
2 3 5 6 3 0 3 7 3 8 11 14 10 9 9 6 7 6 10 13 13 14 14 16 13 13 13 12 12 11 10 11 10 9 8 6 6 5 6 5 4 5 5 4 5 6 4 5 5
Wind_Direction
156 149 132 44 60 66 115 120 157 3 9 344 311 61 130 67 87 205 127 149 141 151 158 153 155 151 143 136 136 130 132 131 132 136 140 137 147 148 151 147 151 163 154 158 172 146 134 128 135
142 222 64 82 80 84 300 356 20 349 305 296 258 93 31 83 95 121 120 159 149 147 152 155 160 152 146 137 132 128 140 141 140 144 145 147 156 155 152 156 154 164 159 171 156 158 154 141 140
222 46 79 83 92 138 159 216 296 311 313 232 124 68 49 95 114 144 138 138 131 138 144 163 160 156 150 136 123 101 157 154 151 154 153 158 159 161 161 154 149 151 156 159 154 163 145 152 140
327 17 41 71 34 234 231 137 237 312 6 28 82 68 72 270 156 154 138 135 133 140 148 171 169 160 152 141 140 143 161 178 161 158 158 153 155 151 151 142 150 141 149 153 142 149 164 164 167
37 42 51 42 301 275 271 306 250 257 278 9 118 148 65 10 109 130 135 142 142 146 152 167 174 169 156 148 140 157 205 210 163 153 142 149 146 154 151 141 147 146 151 144 148 156 167 171 178
29 79 45 14 283 284 294 240 260 266 256 119 95 93 31 116 130 144 139 146 150 154 161 175 179 174 160 152 160 171 185 197 158 152 150 151 139 163 164 145 150 154 162 145 155 150 170 185 199
86 74 171 177 283 319 254 163 175 251 162 209 124 104 70 162 135 138 130 136 136 132 141 178 165 176 154 169 168 184 191 170 161 157 151 153 170 151 164 153 154 156 157 167 175 179 197 199 205
109 91 49 238 195 263 237 192 227 235 60 107 124 171 200 179 131 115 124 128 102 109 108 149 144 136 135 151 188 175 168 159 160 160 158 164 144 155 185 159 156 161 166 191 194 207 222 216 189
128 58 278 236 184 247 167 189 162 43 122 81 108 148 162 130 120 115 114 80 111 128 131 88 118 124 119 114 164 158 162 165 164 162 150 138 137 105 227 160 176 177 192 209 222 231 232 211 193
126 133 223 216 207 226 190 181 188 153 119 31 57 77 124 132 141 152 165 172 174 169 159 132 122 143 117 97 70 73 80 96 131 104 92 108 130 121 141 106 211 217 212 232 242 248 235 230 102
201 215 209 243 225 231 190 216 213 168 206 189 175 151 143 146 157 173 178 179 180 175 168 177 167 169 141 134 105 78 74 108 110 126 163 209 117 93 220 16 305 288 268 311 292 302 290 273 196
269 258 228 284 208 250 183 177 212 178 233 155 163 159 149 159 172 181 177 173 168 176 191 183 175 177 157 149 146 124 118 132 139 151 169 189 138 186 210 262 274 263 283 242 255 277 283 281 250
201 265 245 205 203 221 158 208 203 228 25 124 137 159 163 173 172 185 185 177 178 189 193 190 171 173 149 155 150 135 150 151 157 167 190 169 173 183 236 258 262 251 229 223 222 251 289 304 311
288 299 286 216 211 210 189 244 144 207 134 139 156 179 177 176 181 174 175 181 188 192 188 171 170 157 150 154 156 161 166 165 157 153 189 206 191 201 254 265 269 267 204 225 190 232 276 311 328
317 329 331 340 227 250 140 254 227 168 152 159 177 183 198 191 183 196 184 197 189 192 160 163 169 164 162 158 150 172 165 164 146 162 234 230 221 211 212 269 280 278 156 206 142 91 353 303 330
354 42 5 298 153 273 99 271 209 166 160 179 190 192 193 208 204 202 186 189 176 163 171 171 169 172 152 159 156 174 156 161 153 209 253 234 231 217 245 272 280 258 157 144 121 114 326 328 355
6 315 307 320 198 136 187 267 180 164 162 189 199 206 204 203 207 200 195 182 178 176 162 166 164 165 153 171 155 166 167 176 203 213 244 266 261 243 224 247 234 161 160 111 135 109 180 48 1
306 324 291 260 270 211 236 257 200 193 185 209 213 203 204 205 214 193 191 179 165 166 166 159 152 140 152 143 139 142 164 193 214 233 232 250 254 252 233 261 250 168 146 146 126 102 331 62 35
268 261 261 285 263 229 245 256 206 202 217 212 213 198 199 227 206 185 178 168 153 155 160 161 150 154 148 153 148 158 189 174 221 222 229 222 242 238 227 245 146 178 179 185 161 119 142 87 219
261 278 286 289 30 169 324 281 230 192 212 191 199 207 218 191 174 167 163 166 170 166 169 161 165 161 163 163 152 150 148 184 213 213 220 226 220 216 199 207 190 200 152 158 166 179 141 96 187
248 211 274 234 353 51 321 297 352 268 146 160 189 206 235 195 178 165 170 175 165 171 169 170 164 163 164 161 138 106 98 104 189 224 222 225 203 182 177 193 188 184 151 177 171 186 156 144 233
297 197 257 259 69 281 23 288 331 316 267 202 197 196 212 189 180 180 180 176 178 178 165 162 157 161 169 163 168 171 167 164 202 194 181 194 182 173 167 179 194 182 159 176 183 161 177 136 213
238 26 332 110 135 24 1 61 272 25 289 256 223 203 207 197 183 195 186 183 178 166 170 155 152 167 166 177 176 172 161 217 171 170 171 178 162 219 185 185 186 201 167 205 212 171 176 143 177
265 11 39 40 81 16 304 95 289 233 225 261 218 214 204 199 193 185 176 174 175 161 156 154 163 175 164 175 182 185 179 189 215 194 185 190 193 196 208 186 184 210 211 233 239 217 199 170 236
106 67 343 353 9 224 319 35 243 245 241 234 262 214 209 193 185 176 176 174 163 167 169 167 174 183 173 178 188 192 188 192 199 214 191 185 192 213 206 189 189 199 208 216 204 210 225 204 242
184 157 151 228 228 279 331 263 279 218 266 295 297 249 204 203 183 183 182 186 181 176 172 176 179 183 184 183 189 194 189 191 208 207 206 219 208 211 190 201 192 214 219 228 216 229 236 208 246
188 129 168 107 28 33 266 293 307 18 355 4 47 236 213 202 189 182 182 190 190 185 177 180 179 187 190 192 183 186 190 188 208 204 199 231 224 226 226 209 198 221 216 210 197 220 240 204 239
186 159 72 13 146 291 299 290 250 344 330 338 320 241 241 205 185 177 186 192 195 186 182 180 187 191 191 193 193 186 188 192 207 184 197 218 234 234 232 218 217 214 219 216 195 222 220 227 232
51 14 46 114 118 167 241 275 247 307 324 321 308 315 321 279 210 191 194 193 192 183 179 179 185 182 186 190 196 191 185 186 202 203 199 205 192 207 225 226 222 224 226 197 218 224 231 228 253
94 98 122 115 221 55 143 270 54 12 1 357 4 341 311 298 257 245 198 185 187 186 180 183 185 181 185 194 190 196 190 183 194 209 194 202 209 203 214 208 226 220 230 198 216 226 218 219 227